Погода в Широком

Украина / Одесская область     45°57′59″N   30°05′25″E
темп.,
°C
ветер,
м/с
пор.,
м/с
влажн.,
%
обл.,
%
осадки,
мм/ч
давл.,
гПа
погр.,
м
16 сентября, чт
чт1600:00+18с115914 0.0 101811
03:00+17с236384 0.0 101819
06:00+17ссв2359100 0.0 101864
09:00+21всв2354100 0.0 1018386
12:00+25вюв333713 0.0 10181879
15:00+25юв643419 0.0 10171092
18:00+21юв55395 0.0 1017452
21:00+17ююв35595 0.0 101885
17 сентября, пт
пт1700:00+17ю34665 0.0 101859
03:00+17ююз337918 0.0 101724
06:00+17ю3381100 0.0 101637
09:00+22ю676198 0.0 1015760
12:00+24ю885186 0.0 10141011
15:00+24ю9105286 0.0 1013813
18:00+22ю91268100 0.0 1011536
21:00+21ю81476100 0.0 1011614
18 сентября, сб
сб1800:00+21ю81476100 0.0 1010667
03:00+20ю61177100 0.1 1009554
06:00+20ю71077100 0.0 1008569
09:00+21зюз3474100 0.0 1008421
12:00+24зсз335624 0.0 1008958
15:00+25сз334892 0.8 10081583
18:00+24с334899 0.3 10081056
21:00+21с235518 0.3 100966
19 сентября, вс
вс1900:00+19с226299 0.0 101026
03:00+19с226377 0.0 101019
06:00+16с2268100 0.0 101012
09:00+20сз33517 0.0 1010353
12:00+25зсз5730100 0.0 10101735
15:00+26з810242 0.0 10092712
18:00+25сз592684 0.0 10092652
21:00+19ссз474185 0.0 1010112
20 сентября, пн
пн2000:00+18ссв2450100 0.0 1010135
03:00+17ссв3461100 0.0 1010144
06:00+16ссв3466100 0.0 1009179
09:00+15с5661100 0.0 1011375
12:00+17ссз6647100 0.0 1011778
15:00+19ссз6640100 0.0 10111244
18:00+18ссз674079 0.1 10111092
21:00+13ссз6105756 0.1 1014425